"Pseudo-MPEC" for A11G8Bl

Created 2026 Aug 30 18:35:03 UT using Find_Orb

Click here for an explanation of pseudo-MPECs

 
 Astrometry: 
     A11G8Bl 0C2026 08 30.31164219 15 25.870+14 31 09.28   ~8UIK 18.42gUNEOCPI41
     A11G8Bl 0C2026 08 30.31199219 15 23.220+14 30 31.33   ~8UIK 18.42gUNEOCPI41
     A11G8Bl*0C2026 08 30.35016819 11 07.380+13 26 31.63   ~8UH5 16.30oVNEOCPT08
     A11G8Bl 0C2026 08 30.35290919 10 42.734+13 20 54.06   ~8UH5 16.50oVNEOCPT08
     A11G8Bl 0C2026 08 30.36319219 09 09.058+12 59 23.68   ~8UH5 16.68oVNEOCPT08
     A11G8Bl 0C2026 08 30.37781519 06 53.674+12 27 57.10   ~8UH5 16.34oVNEOCPT08

Station data:
(I41) Palomar Mountain--ZTF  (N33.357336 W116.859780)  US/California.
   Observers B. T. Bolin, Z. T. F. Collaboration. Measurers B. T. Bolin,
   Z.-Y. Lin, F. J. Masci. 1.2-m f/2.4 Schmidt.
(T08) ATLAS-MLO, Mauna Loa  (N19.536150 W155.576050)  US/Hawaii.  Observers
   L. Denneau, R. Siverd, J. Tonry, H. Weiland. Measurers L. Denneau, N.
   Erasmus, A. Fitzsimmons, J. Robinson, R. Siverd, J. Tonry, H. Weiland.
   0.5-m f/2.0 Schmidt + CCD.

Orbital elements:  A11G8Bl
   Perigee 2026 Aug 30.972186 +/- 0.00142 TT = 23:19:56.8 (JD 2461283.472186)
Epoch 2026 Aug 30.0 TT = JDT 2461282.5                           AutoNEOCP
q363824.3523 +/- 4801               (J2000 equator)
H   27.45 G 0.15                    Peri.  208.876785 +/- 0.9
                                    Node    95.348307 +/- 0.0036
e  47.67747046 +/- 1.63             Incl.  132.366794 +/- 0.006
From 6 observations 2026 Aug. 30 (95.3 min); mean residual 1".65
Residuals in arcseconds: 
260830 I41  1.8-  1.3-    260830 T08  2.0-  2.1-    260830 T08  2.3+  2.3+    
260830 I41  1.9+  1.6+    260830 T08  .54+  .34+    260830 T08  .97-  .79-    

Ephemerides (geocentric):
Date (UTC) HH   RA             Dec           delta  r     elong  mag " sig PA
---- --------  ------------   ------------  ------ ------ -----  --- --------
2026 08 30 19  17 50 00.577   -08 31 06.37  380737 1.0104 109.7 17.0 1734  43
2026 08 30 20  17 39 18.266   -11 19 44.10  373896 1.0103 107.3 17.0 2156  44
2026 08 30 21  17 28 01.703   -14 12 17.78  368767 1.0102 104.8 17.1 2617  44
2026 08 30 22  17 16 11.462   -17 06 45.62  365423 1.0101 102.2 17.1 3106  45
2026 08 30 23  17 03 48.873   -20 00 50.33  363913 1.0099  99.6 17.2 3609  46
2026 08 31 00  16 50 56.122   -22 52 06.73  364262 1.0098  96.9 17.3 4111  47
2026 08 31 01  16 37 36.319   -25 38 11.02  366463 1.0097  94.2 17.4 4595  48
2026 08 31 02  16 23 53.510   -28 16 50.16  370483 1.0096  91.5 17.5 5048  50
2026 08 31 03  16 09 52.623   -30 46 10.32  376263 1.0095  88.9 17.7 5457  52
2026 08 31 04  15 55 39.339   -33 04 42.89  383724 1.0093  86.4 17.8 5816  54
2026 08 31 05  15 41 19.887   -35 11 27.64  392769 1.0092  84.0 18.0 6120  56
2026 08 31 06  15 27 00.785   -37 05 52.95  403290 1.0091  81.7 18.2 6368  58
2026 08 31 07  15 12 48.546   -38 47 53.53  415176 1.0090  79.6 18.3 6564  60
2026 08 31 08  14 58 49.382   -40 17 46.39  428310 1.0088  77.6 18.5 6710  62
2026 08 31 09  14 45 08.951   -41 36 05.98  442582 1.0087  75.7 18.7 6813  64
2026 08 31 10  14 31 52.145   -42 43 39.09  457884 1.0086  74.0 18.8 6879  67
2026 08 31 11  14 19 02.968   -43 41 20.17  474116 1.0085  72.4 19.0 6912  69
2026 08 31 12  14 06 44.480   -44 30 07.32  491184 1.0083  71.0 19.1 6919  71
2026 08 31 13  13 54 58.813   -45 10 59.11  509004 1.0082  69.6 19.3 6905  73
2026 08 31 14  13 43 47.236   -45 44 52.27  527499 1.0081  68.4 19.5 6874  75
2026 08 31 15  13 33 10.263   -46 12 40.13  546600 1.0080  67.3 19.6 6830  77
2026 08 31 16  13 23 07.772   -46 35 11.65  566245 1.0079  66.3 19.7 6775  79
2026 08 31 17  13 13 39.136   -46 53 11.03  586378 1.0077  65.3 19.9 6713  80
2026 08 31 18  13 04 43.335   -47 07 17.55  606951 1.0076  64.4 20.0 6646  82
2026 08 31 19  12 56 19.075   -47 18 05.76  627920 1.0075  63.6 20.1 6575  84
2026 08 31 20  12 48 24.871   -47 26 05.77  649247 1.0074  62.9 20.3 6502  85
2026 08 31 21  12 40 59.130   -47 31 43.66  670896 1.0072  62.2 20.4 6427  86
2026 08 31 22  12 34 00.205   -47 35 21.84  692837 1.0071  61.6 20.5 6352  88
2026 08 31 23  12 27 26.449   -47 37 19.52  715043 1.0070  61.0 20.6 6278  89
2026 09 01 00  12 21 16.238   -47 37 53.12  737490 1.0069  60.5 20.7 6204  90
2026 09 01 01  12 15 28.006   -47 37 16.60  760156 1.0068  60.0 20.8 6131  91
2026 09 01 02  12 10 00.254   -47 35 41.84  783022 1.0066  59.5 20?? 6060  92
2026 09 01 03  12 04 51.562   -47 33 18.91  806070 1.0065  59.1 21?? 5990  93
2026 09 01 04  12 00 00.595   -47 30 16.34  829286 1.0064  58.7 21?? 5923  94
2026 09 01 05  11 55 26.105   -47 26 41.36  852655 1.0063  58.3 21?? 5857  95
2026 09 01 06  11 51 06.928   -47 22 40.08  876165 1.0061  57.9 21?? 5793  96
2026 09 01 07  11 47 01.983   -47 18 17.67  899805 1.0060  57.6 21?? 5731  96
2026 09 01 08  11 43 10.272   -47 13 38.48  923564 1.0059  57.3 21?? 5671  97
2026 09 01 09  11 39 30.868   -47 08 46.22  947434 1.0058  57.0 21?? 5613  98
2026 09 01 10  11 36 02.919   -47 03 43.97  971406 1.0057  56.7 21?? 5557  98
2026 09 01 11  11 32 45.636   -46 58 34.36  995473 1.0055  56.5 21?? 5502  99
2026 09 01 12  11 29 38.294   -46 53 19.59  .00682 1.0054  56.2 21?? 5450 100
2026 09 01 13  11 26 40.224   -46 48 01.51  .00698 1.0053  56.0 21?? 5399 100
2026 09 01 14  11 23 50.807   -46 42 41.67  .00714 1.0052  55.8 21?? 5351 101
2026 09 01 15  11 21 09.477   -46 37 21.37  .00730 1.0050  55.6 21?? 5303 101
2026 09 01 16  11 18 35.707   -46 32 01.69  .00747 1.0049  55.4 22?? 5258 102
2026 09 01 17  11 16 09.015   -46 26 43.54  .00763 1.0048  55.2 22?? 5214 102
2026 09 01 18  11 13 48.953   -46 21 27.66  .00779 1.0047  55.0 22?? 5171 102